Weather History for Keahole Point, HI

Change the Weather History Date:

Friday, November 30, 2012

  Actual Average Record
Temperature  
Mean Temperature 76 °F -  
Max Temperature 81 °F 81 °F 89 °F (1988)
Min Temperature 70 °F 69 °F 64 °F (1985)
Cooling Degree Days 10    
Growing Degree Days 26 (Base 50)    
Moisture  
Dew Point 62 °F    
Average Humidity 63    
Maximum Humidity 70    
Minimum Humidity 52    
Precipitation  
Precipitation 0.00 in - - ()
Sea Level Pressure  
Sea Level Pressure 30.03 in    
Wind  
Wind Speed 5 mph (NNE)    
Max Wind Speed 8 mph    
Max Gust Speed -    
Visibility 10 miles    
Events      
Averages and records for this station are not official NWS values.
T = Trace of Precipitation, MM = Missing Value Source: NWS Daily Summary

Daily Weather History Graph

Daily Weather History Graph

Search for Another Location

Airport:

Trip Planner

Search our weather history database for the weather conditions in past years. The results will help you decide how hot, cold, wet, or windy it might be!

Date:

Astronomy

Nov. 30, 2012 Rise Set
Actual Time 6:42 AM HST 5:44 PM HST
Civil Twilight 6:18 AM HST 6:07 PM HST
Nautical Twilight 5:51 AM HST 6:34 PM HST
Astronomical Twilight 5:24 AM HST 7:01 PM HST
Moon 7:46 PM HST (11/30) 8:23 AM HST (11/30)
Length of Visible Light 11h 49m
Length of Day
11h 01m
Waning Gibbous, 95% of the Moon is Illuminated
Nov 30
Waning Gibbous
Dec 6
Last Quarter
Dec 12
New
Dec 19
First Quarter
Dec 28
Full

Hourly Weather History & Observations

Time (HST) Temp. Heat Index Dew Point Humidity Pressure Visibility Wind Dir Wind Speed Gust Speed Precip Events Conditions
12:53 AM 73.0 °F - 61.0 °F 66% 30.05 in 10.0 mi East 4.6 mph - N/A   Partly Cloudy
1:53 AM 72.0 °F - 61.0 °F 68% 30.04 in 10.0 mi East 5.8 mph - N/A   Mostly Cloudy
2:53 AM 72.0 °F - 61.0 °F 68% 30.03 in 10.0 mi East 5.8 mph - N/A   Partly Cloudy
3:53 AM 71.1 °F - 61.0 °F 70% 30.01 in 10.0 mi NE 3.5 mph - N/A   Clear
4:53 AM 71.1 °F - 60.1 °F 68% 29.99 in 10.0 mi NE 5.8 mph - N/A   Clear
5:53 AM 71.1 °F - 61.0 °F 70% 30.01 in 10.0 mi ENE 6.9 mph - N/A   Clear
6:53 AM 70.0 °F - 57.9 °F 65% 30.03 in 10.0 mi ENE 3.5 mph - N/A   Clear
7:53 AM 72.0 °F - 59.0 °F 64% 30.04 in 10.0 mi ENE 4.6 mph - N/A   Clear
8:53 AM 77.0 °F - 62.1 °F 60% 30.06 in 10.0 mi Variable 3.5 mph - N/A   Clear
9:53 AM 80.1 °F 81.7 °F 64.0 °F 58% 30.06 in 10.0 mi WNW 6.9 mph - N/A   Clear
10:53 AM 78.1 °F - 63.0 °F 60% 30.05 in 10.0 mi WNW 8.1 mph - N/A   Clear
11:53 AM 81.0 °F 82.2 °F 63.0 °F 54% 30.04 in 10.0 mi West 6.9 mph - N/A   Clear
12:53 PM 81.0 °F 81.9 °F 62.1 °F 52% 30.01 in 10.0 mi WSW 6.9 mph - N/A   Clear
1:53 PM 79.0 °F - 63.0 °F 58% 29.98 in 10.0 mi WNW 6.9 mph - N/A   Clear
2:53 PM 80.1 °F 81.7 °F 64.0 °F 58% 29.97 in 10.0 mi West 8.1 mph - N/A   Clear
3:53 PM 79.0 °F - 63.0 °F 58% 29.97 in 10.0 mi WSW 8.1 mph - N/A   Clear
4:53 PM 79.0 °F - 63.0 °F 58% 29.99 in 10.0 mi WNW 5.8 mph - N/A   Clear
5:53 PM 77.0 °F - 64.0 °F 64% 30.00 in 10.0 mi WNW 4.6 mph - N/A   Mostly Cloudy
6:53 PM 75.9 °F - 64.0 °F 67% 30.02 in 10.0 mi Calm Calm - N/A   Clear
7:53 PM 75.0 °F - 63.0 °F 66% 30.04 in 10.0 mi ESE 3.5 mph - N/A   Clear
8:53 PM 73.9 °F - 62.1 °F 66% 30.06 in 10.0 mi East 4.6 mph - N/A   Clear
9:53 PM 73.9 °F - 62.1 °F 66% 30.06 in 10.0 mi Calm Calm - N/A   Clear
10:53 PM 73.0 °F - 61.0 °F 66% 30.06 in 10.0 mi Calm Calm - N/A   Clear
11:53 PM 72.0 °F - 61.0 °F 68% 30.05 in 10.0 mi ENE 3.5 mph - N/A   Clear